Back to catalog

STARLINK-30348

AliveCommunicationsVLEO
NORAD 57712·PAYLOAD·🇺🇸 United States

Launched Aug 27, 2023 from Cape Canaveral Space Force Station

Loading…

Next Passes (next 24 hours)

TLE

FreshSource: CelesTrak SupGP

Epoch: Sep 14, 2026, 14:25 UTC

1 57712C 23129Q   26257.60118056  .00042590  00000+0  15430-2 0  2579
2 57712  42.9991 131.1255 0001400 260.4326  76.9888 15.27547844    18

Track STARLINK-30348 in real time with AllMySat

Download on the App Store